7 * 24
多渠道服务支持
STARLINK-32403 是 SpaceX Starlink 卫星互联网项目中的一颗低轨道卫星,属于第三代星链卫星(v1.5 或 v2 架构)。它旨在为全球用户提供高速、低延迟的宽带互联网服务。该卫星部署在约 550 公里的轨道高度,具备先进通信技术和激光链路,以提升网络性能和覆盖范围。作为 Starlink 网络的一部分,它支持偏远地区的互联网接入,并增强整体星座的冗余与稳定性。
  
                美国
                (US)
                | 数据来源 | 国际轨道数据 | 
| 星历时间: | 2025-11-03T22:30:53+0800 15小时前 查看轨道信息 | 
| 半长轴: | 6861.148km | 
| 偏心率: | 0.0001271 | 
| 轨道倾角: | 43.004° | 
| 近地点辐角 | 281.022° | 
| 升交点赤经 | 146.541° | 
| 平近点角 | 79.049° | 
| 近地点: | 482.14km | 
| 远地点: | 483.886km | 
| 周期: | 94.266分钟 | 
| 每日圈数: | 15.275929 |